Year,Month,Day,Hour,Minute,Value (Times are PST for temperature in C)
2010,03,04,00,00,5.80
2010,03,04,00,01,5.80
2010,03,04,00,02,5.80
2010,03,04,00,03,5.80
2010,03,04,00,04,5.90
2010,03,04,00,05,5.90
2010,03,04,00,06,5.90
2010,03,04,00,07,5.90
2010,03,04,00,08,6.00
2010,03,04,00,09,6.00
2010,03,04,00,10,6.00
2010,03,04,00,11,6.00
2010,03,04,00,12,6.10
2010,03,04,00,13,6.10
2010,03,04,00,14,6.10
2010,03,04,00,15,6.10
2010,03,04,00,16,6.10
2010,03,04,00,17,6.10
2010,03,04,00,18,6.10
2010,03,04,00,19,6.00
2010,03,04,00,20,6.00
2010,03,04,00,21,6.00
2010,03,04,00,22,6.00
2010,03,04,00,23,6.00
2010,03,04,00,24,6.00
2010,03,04,00,25,6.00
2010,03,04,00,26,6.00
2010,03,04,00,27,6.10
2010,03,04,00,28,6.10
2010,03,04,00,29,6.10
2010,03,04,00,30,6.10
2010,03,04,00,31,6.20
2010,03,04,00,32,6.20
2010,03,04,00,33,6.20
2010,03,04,00,34,6.30
2010,03,04,00,35,6.40
2010,03,04,00,36,6.50
2010,03,04,00,37,6.70
2010,03,04,00,38,6.80
2010,03,04,00,39,6.80
2010,03,04,00,40,6.90
2010,03,04,00,41,6.90
2010,03,04,00,42,6.90
2010,03,04,00,43,6.90
2010,03,04,00,44,6.90
2010,03,04,00,45,6.90
2010,03,04,00,46,6.90
2010,03,04,00,47,6.90
2010,03,04,00,48,6.90
2010,03,04,00,49,6.90
2010,03,04,00,50,6.90
2010,03,04,00,51,6.90
2010,03,04,00,52,6.90
2010,03,04,00,53,6.90
2010,03,04,00,54,6.90
2010,03,04,00,55,6.90
2010,03,04,00,56,6.80
2010,03,04,00,57,6.80
2010,03,04,00,58,6.80
2010,03,04,00,59,6.80
2010,03,04,01,00,6.80
2010,03,04,01,01,6.80
2010,03,04,01,02,6.90
2010,03,04,01,03,6.90
2010,03,04,01,04,6.90
2010,03,04,01,05,6.90
2010,03,04,01,06,6.90
2010,03,04,01,07,6.90
2010,03,04,01,08,6.90
2010,03,04,01,09,6.90
2010,03,04,01,10,6.90
2010,03,04,01,11,6.90
2010,03,04,01,12,6.90
2010,03,04,01,13,7.00
2010,03,04,01,14,7.00
2010,03,04,01,15,7.00
2010,03,04,01,16,7.00
2010,03,04,01,17,7.00
2010,03,04,01,18,7.00
2010,03,04,01,19,7.00
2010,03,04,01,20,7.00
2010,03,04,01,21,7.10
2010,03,04,01,22,7.10
2010,03,04,01,23,7.10
2010,03,04,01,24,7.10
2010,03,04,01,25,7.10
2010,03,04,01,26,7.10
2010,03,04,01,27,7.10
2010,03,04,01,28,7.10
2010,03,04,01,29,7.20
2010,03,04,01,30,7.20
2010,03,04,01,31,7.20
2010,03,04,01,32,7.20
2010,03,04,01,33,7.20
2010,03,04,01,34,7.20
2010,03,04,01,35,7.20
2010,03,04,01,36,7.20
2010,03,04,01,37,7.20
2010,03,04,01,38,7.20
2010,03,04,01,39,7.20
2010,03,04,01,40,7.20
2010,03,04,01,41,7.20
2010,03,04,01,42,7.20
2010,03,04,01,43,7.20
2010,03,04,01,44,7.20
2010,03,04,01,45,7.30
2010,03,04,01,46,7.30
2010,03,04,01,47,7.30
2010,03,04,01,48,7.40
2010,03,04,01,49,7.40
2010,03,04,01,50,7.40
2010,03,04,01,51,7.40
2010,03,04,01,52,7.40
2010,03,04,01,53,7.40
2010,03,04,01,54,7.40
2010,03,04,01,55,7.40
2010,03,04,01,56,7.40
2010,03,04,01,57,7.40
2010,03,04,01,58,7.40
2010,03,04,01,59,7.40
2010,03,04,02,00,7.40
2010,03,04,02,01,7.40
2010,03,04,02,02,7.40
2010,03,04,02,03,7.50
2010,03,04,02,04,7.40
2010,03,04,02,05,7.50
2010,03,04,02,06,7.50
2010,03,04,02,07,7.50
2010,03,04,02,08,7.50
2010,03,04,02,09,7.40
2010,03,04,02,10,7.40
2010,03,04,02,11,7.40
2010,03,04,02,12,7.40
2010,03,04,02,13,7.40
2010,03,04,02,14,7.30
2010,03,04,02,15,7.30
2010,03,04,02,16,7.30
2010,03,04,02,17,7.30
2010,03,04,02,18,7.30
2010,03,04,02,19,7.30
2010,03,04,02,20,7.30
2010,03,04,02,21,7.30
2010,03,04,02,22,7.30
2010,03,04,02,23,7.30
2010,03,04,02,24,7.30
2010,03,04,02,25,7.30
2010,03,04,02,26,7.20
2010,03,04,02,27,7.20
2010,03,04,02,28,7.20
2010,03,04,02,29,7.20
2010,03,04,02,30,7.20
2010,03,04,02,31,7.30
2010,03,04,02,32,7.30
2010,03,04,02,33,7.30
2010,03,04,02,34,7.30
2010,03,04,02,35,7.30
2010,03,04,02,36,7.20
2010,03,04,02,37,7.20
2010,03,04,02,38,7.20
2010,03,04,02,39,7.20
2010,03,04,02,40,7.20
2010,03,04,02,41,7.20
2010,03,04,02,42,7.20
2010,03,04,02,43,7.20
2010,03,04,02,44,7.20
2010,03,04,02,45,7.20
2010,03,04,02,46,7.20
2010,03,04,02,47,7.10
2010,03,04,02,48,7.10
2010,03,04,02,49,7.10
2010,03,04,02,50,7.10
2010,03,04,02,51,7.10
2010,03,04,02,52,7.10
2010,03,04,02,53,7.00
2010,03,04,02,54,7.00
2010,03,04,02,55,7.00
2010,03,04,02,56,6.90
2010,03,04,02,57,6.90
2010,03,04,02,58,6.90
2010,03,04,02,59,6.80
2010,03,04,03,00,6.80
2010,03,04,03,01,6.80
2010,03,04,03,02,6.80
2010,03,04,03,03,6.70
2010,03,04,03,04,6.70
2010,03,04,03,05,6.70
2010,03,04,03,06,6.70
2010,03,04,03,07,6.60
2010,03,04,03,08,6.60
2010,03,04,03,09,6.60
2010,03,04,03,10,6.60
2010,03,04,03,11,6.60
2010,03,04,03,12,6.60
2010,03,04,03,13,6.70
2010,03,04,03,14,6.70
2010,03,04,03,15,6.70
2010,03,04,03,16,6.60
2010,03,04,03,17,6.60
2010,03,04,03,18,6.60
2010,03,04,03,19,6.60
2010,03,04,03,20,6.60
2010,03,04,03,21,6.60
2010,03,04,03,22,6.60
2010,03,04,03,23,6.60
2010,03,04,03,24,6.60
2010,03,04,03,25,6.60
2010,03,04,03,26,6.60
2010,03,04,03,27,6.60
2010,03,04,03,28,6.60
2010,03,04,03,29,6.60
2010,03,04,03,30,6.60
2010,03,04,03,31,6.60
2010,03,04,03,32,6.60
2010,03,04,03,33,6.50
2010,03,04,03,34,6.50
2010,03,04,03,35,6.50
2010,03,04,03,36,6.50
2010,03,04,03,37,6.40
2010,03,04,03,38,6.40
2010,03,04,03,39,6.40
2010,03,04,03,40,6.40
2010,03,04,03,41,6.40
2010,03,04,03,42,6.30
2010,03,04,03,43,6.30
2010,03,04,03,44,6.30
2010,03,04,03,45,6.30
2010,03,04,03,46,6.30
2010,03,04,03,47,6.30
2010,03,04,03,48,6.20
2010,03,04,03,49,6.20
2010,03,04,03,50,6.20
2010,03,04,03,51,6.20
2010,03,04,03,52,6.20
2010,03,04,03,53,6.20
2010,03,04,03,54,6.20
2010,03,04,03,55,6.20
2010,03,04,03,56,6.20
2010,03,04,03,57,6.10
2010,03,04,03,58,6.20
2010,03,04,03,59,6.20
2010,03,04,04,00,6.20
2010,03,04,04,01,6.10
2010,03,04,04,02,6.10
2010,03,04,04,03,6.10
2010,03,04,04,04,6.10
2010,03,04,04,05,6.10
2010,03,04,04,06,6.10
2010,03,04,04,07,6.10
2010,03,04,04,08,6.10
2010,03,04,04,09,6.10
2010,03,04,04,10,6.10
2010,03,04,04,11,6.10
2010,03,04,04,12,6.10
2010,03,04,04,13,6.10
2010,03,04,04,14,6.10
2010,03,04,04,15,6.10
2010,03,04,04,16,6.10
2010,03,04,04,17,6.10
2010,03,04,04,18,6.10
2010,03,04,04,19,6.00
2010,03,04,04,20,6.00
2010,03,04,04,21,6.00
2010,03,04,04,22,6.00
2010,03,04,04,23,6.00
2010,03,04,04,24,6.00
2010,03,04,04,25,6.00
2010,03,04,04,26,6.00
2010,03,04,04,27,6.00
2010,03,04,04,28,6.00
2010,03,04,04,29,6.00
2010,03,04,04,30,6.00
2010,03,04,04,31,6.00
2010,03,04,04,32,6.00
2010,03,04,04,33,5.90
2010,03,04,04,34,5.90
2010,03,04,04,35,5.90
2010,03,04,04,36,5.90
2010,03,04,04,37,5.90
2010,03,04,04,38,5.90
2010,03,04,04,39,5.90
2010,03,04,04,40,5.90
2010,03,04,04,41,5.90
2010,03,04,04,42,5.90
2010,03,04,04,43,5.90
2010,03,04,04,44,5.90
2010,03,04,04,45,5.90
2010,03,04,04,46,5.90
2010,03,04,04,47,5.90
2010,03,04,04,48,5.90
2010,03,04,04,49,5.90
2010,03,04,04,50,5.90
2010,03,04,04,51,5.90
2010,03,04,04,52,5.90
2010,03,04,04,53,5.90
2010,03,04,04,54,5.90
2010,03,04,04,55,6.00
2010,03,04,04,56,5.90
2010,03,04,04,57,5.90
2010,03,04,04,58,5.90
2010,03,04,04,59,5.90
2010,03,04,05,00,5.90
2010,03,04,05,01,5.90
2010,03,04,05,02,5.90
2010,03,04,05,03,5.90
2010,03,04,05,04,6.00
2010,03,04,05,05,6.00
2010,03,04,05,06,6.00
2010,03,04,05,07,6.00
2010,03,04,05,08,6.00
2010,03,04,05,09,6.00
2010,03,04,05,10,6.00
2010,03,04,05,11,6.00
2010,03,04,05,12,6.00
2010,03,04,05,13,6.00
2010,03,04,05,14,6.00
2010,03,04,05,15,6.00
2010,03,04,05,16,5.90
2010,03,04,05,17,5.90
2010,03,04,05,18,5.90
2010,03,04,05,19,5.90
2010,03,04,05,20,5.90
2010,03,04,05,21,5.90
2010,03,04,05,22,5.90
2010,03,04,05,23,5.90
2010,03,04,05,24,5.90
2010,03,04,05,25,5.90
2010,03,04,05,26,5.90
2010,03,04,05,27,5.90
2010,03,04,05,28,5.90
2010,03,04,05,29,5.90
2010,03,04,05,30,5.90
2010,03,04,05,31,5.90
2010,03,04,05,32,5.90
2010,03,04,05,33,5.90
2010,03,04,05,34,5.90
2010,03,04,05,35,5.90
2010,03,04,05,36,5.80
2010,03,04,05,37,5.80
2010,03,04,05,38,5.80
2010,03,04,05,39,5.80
2010,03,04,05,40,5.80
2010,03,04,05,41,5.80
2010,03,04,05,42,5.80
2010,03,04,05,43,5.80
2010,03,04,05,44,5.80
2010,03,04,05,45,5.90
2010,03,04,05,46,5.90
2010,03,04,05,47,5.90
2010,03,04,05,48,5.90
2010,03,04,05,49,5.90
2010,03,04,05,50,5.90
2010,03,04,05,51,6.00
2010,03,04,05,52,6.00
2010,03,04,05,53,6.00
2010,03,04,05,54,6.00
2010,03,04,05,55,6.00
2010,03,04,05,56,6.00
2010,03,04,05,57,6.00
2010,03,04,05,58,6.00
2010,03,04,05,59,6.10
2010,03,04,06,00,6.10
2010,03,04,06,01,6.10
2010,03,04,06,02,6.10
2010,03,04,06,03,6.10
2010,03,04,06,04,6.10
2010,03,04,06,05,6.10
2010,03,04,06,06,6.10
2010,03,04,06,07,6.10
2010,03,04,06,08,6.10
2010,03,04,06,09,6.10
2010,03,04,06,10,6.10
2010,03,04,06,11,6.00
2010,03,04,06,12,6.00
2010,03,04,06,13,6.00
2010,03,04,06,14,6.00
2010,03,04,06,15,6.00
2010,03,04,06,16,6.00
2010,03,04,06,17,6.00
2010,03,04,06,18,5.90
2010,03,04,06,19,5.90
2010,03,04,06,20,5.90
2010,03,04,06,21,5.90
2010,03,04,06,22,5.90
2010,03,04,06,23,5.90
2010,03,04,06,24,5.90
2010,03,04,06,25,5.90
2010,03,04,06,26,5.90
2010,03,04,06,27,5.90
2010,03,04,06,28,5.90
2010,03,04,06,29,5.80
2010,03,04,06,30,5.80
2010,03,04,06,31,5.80
2010,03,04,06,32,5.80
2010,03,04,06,33,5.80
2010,03,04,06,34,5.80
2010,03,04,06,35,5.80
2010,03,04,06,36,5.80
2010,03,04,06,37,5.80
2010,03,04,06,38,5.80
2010,03,04,06,39,5.80
2010,03,04,06,40,5.80
2010,03,04,06,41,5.70
2010,03,04,06,42,5.70
2010,03,04,06,43,5.70
2010,03,04,06,44,5.70
2010,03,04,06,45,5.70
2010,03,04,06,46,5.70
2010,03,04,06,47,5.70
2010,03,04,06,48,5.70
2010,03,04,06,49,5.70
2010,03,04,06,50,5.70
2010,03,04,06,51,5.70
2010,03,04,06,52,5.70
2010,03,04,06,53,5.70
2010,03,04,06,54,5.70
2010,03,04,06,55,5.70
2010,03,04,06,56,5.70
2010,03,04,06,57,5.70
2010,03,04,06,58,5.70
2010,03,04,06,59,5.70
2010,03,04,07,00,5.70
2010,03,04,07,01,5.70
2010,03,04,07,02,5.70
2010,03,04,07,03,5.70
2010,03,04,07,04,5.70
2010,03,04,07,05,5.70
2010,03,04,07,06,5.70
2010,03,04,07,07,5.70
2010,03,04,07,08,5.70
2010,03,04,07,09,5.70
2010,03,04,07,10,5.70
2010,03,04,07,11,5.70
2010,03,04,07,12,5.70
2010,03,04,07,13,5.80
2010,03,04,07,14,5.80
2010,03,04,07,15,5.80
2010,03,04,07,16,5.80
2010,03,04,07,17,5.80
2010,03,04,07,18,5.80
2010,03,04,07,19,5.80
2010,03,04,07,20,5.80
2010,03,04,07,21,5.80
2010,03,04,07,22,5.80
2010,03,04,07,23,5.80
2010,03,04,07,24,5.80
2010,03,04,07,25,5.80
2010,03,04,07,26,5.80
2010,03,04,07,27,5.80
2010,03,04,07,28,5.80
2010,03,04,07,29,5.80
2010,03,04,07,30,5.90
2010,03,04,07,31,5.90
2010,03,04,07,32,5.90
2010,03,04,07,33,5.90
2010,03,04,07,34,5.90
2010,03,04,07,35,5.90
2010,03,04,07,36,5.90
2010,03,04,07,37,5.90
2010,03,04,07,38,5.90
2010,03,04,07,39,5.90
2010,03,04,07,40,5.90
2010,03,04,07,41,5.90
2010,03,04,07,42,5.90
2010,03,04,07,43,5.90
2010,03,04,07,44,5.90
2010,03,04,07,45,5.90
2010,03,04,07,46,5.90
2010,03,04,07,47,5.90
2010,03,04,07,48,5.90
2010,03,04,07,49,5.90
2010,03,04,07,50,5.90
2010,03,04,07,51,5.90
2010,03,04,07,52,5.90
2010,03,04,07,53,5.90
2010,03,04,07,54,5.90
2010,03,04,07,55,5.90
2010,03,04,07,56,5.90
2010,03,04,07,57,5.90
2010,03,04,07,58,5.90
2010,03,04,07,59,6.00
2010,03,04,08,00,6.00
2010,03,04,08,01,6.00
2010,03,04,08,02,6.00
2010,03,04,08,03,6.00
2010,03,04,08,04,6.00
2010,03,04,08,05,6.00
2010,03,04,08,06,6.00
2010,03,04,08,07,6.10
2010,03,04,08,08,6.10
2010,03,04,08,09,6.10
2010,03,04,08,10,6.10
2010,03,04,08,11,6.10
2010,03,04,08,12,6.10
2010,03,04,08,13,6.10
2010,03,04,08,14,6.20
2010,03,04,08,15,6.20
2010,03,04,08,16,6.20
2010,03,04,08,17,6.20
2010,03,04,08,18,6.20
2010,03,04,08,19,6.30
2010,03,04,08,20,6.30
2010,03,04,08,21,6.40
2010,03,04,08,22,6.40
2010,03,04,08,23,6.50
2010,03,04,08,24,6.50
2010,03,04,08,25,6.60
2010,03,04,08,26,6.60
2010,03,04,08,27,6.70
2010,03,04,08,28,6.70
2010,03,04,08,29,6.80
2010,03,04,08,30,6.80
2010,03,04,08,31,6.80
2010,03,04,08,32,6.90
2010,03,04,08,33,6.90
2010,03,04,08,34,7.00
2010,03,04,08,35,7.00
2010,03,04,08,36,7.00
2010,03,04,08,37,7.10
2010,03,04,08,38,7.10
2010,03,04,08,39,7.10
2010,03,04,08,40,7.20
2010,03,04,08,41,7.20
2010,03,04,08,42,7.20
2010,03,04,08,43,7.20
2010,03,04,08,44,7.20
2010,03,04,08,45,7.30
2010,03,04,08,46,7.30
2010,03,04,08,47,7.30
2010,03,04,08,48,7.30
2010,03,04,08,49,7.30
2010,03,04,08,50,7.40
2010,03,04,08,51,7.40
2010,03,04,08,52,7.40
2010,03,04,08,53,7.40
2010,03,04,08,54,7.40
2010,03,04,08,55,7.40
2010,03,04,08,56,7.50
2010,03,04,08,57,7.50
2010,03,04,08,58,7.60
2010,03,04,08,59,7.60
2010,03,04,09,00,7.60
2010,03,04,09,01,7.60
2010,03,04,09,02,7.70
2010,03,04,09,03,7.70
2010,03,04,09,04,7.70
2010,03,04,09,05,7.70
2010,03,04,09,06,7.70
2010,03,04,09,07,7.70
2010,03,04,09,08,7.70
2010,03,04,09,09,7.70
2010,03,04,09,10,7.80
2010,03,04,09,11,7.80
2010,03,04,09,12,7.80
2010,03,04,09,13,7.80
2010,03,04,09,14,7.90
2010,03,04,09,15,7.90
2010,03,04,09,16,7.90
2010,03,04,09,17,7.90
2010,03,04,09,18,8.00
2010,03,04,09,19,8.00
2010,03,04,09,20,8.00
2010,03,04,09,21,8.00
2010,03,04,09,22,8.10
2010,03,04,09,23,8.10
2010,03,04,09,24,8.10
2010,03,04,09,25,8.20
2010,03,04,09,26,8.20
2010,03,04,09,27,8.20
2010,03,04,09,28,8.20
2010,03,04,09,29,8.20
2010,03,04,09,30,8.30
2010,03,04,09,31,8.30
2010,03,04,09,32,8.30
2010,03,04,09,33,8.30
2010,03,04,09,34,8.40
2010,03,04,09,35,8.40
2010,03,04,09,36,8.50
2010,03,04,09,37,8.50
2010,03,04,09,38,8.60
2010,03,04,09,39,8.60
2010,03,04,09,40,8.60
2010,03,04,09,41,8.60
2010,03,04,09,42,8.70
2010,03,04,09,43,8.70
2010,03,04,09,44,8.70
2010,03,04,09,45,8.80
2010,03,04,09,46,8.80
2010,03,04,09,47,8.80
2010,03,04,09,48,8.80
2010,03,04,09,49,8.90
2010,03,04,09,50,8.90
2010,03,04,09,51,9.00
2010,03,04,09,52,9.00
2010,03,04,09,53,9.00
2010,03,04,09,54,9.10
2010,03,04,09,55,9.10
2010,03,04,09,56,9.10
2010,03,04,09,57,9.10
2010,03,04,09,58,9.10
2010,03,04,09,59,9.10
2010,03,04,10,00,9.20
2010,03,04,10,01,9.20
2010,03,04,10,02,9.30
2010,03,04,10,03,9.30
2010,03,04,10,04,9.30
2010,03,04,10,05,9.40
2010,03,04,10,06,9.40
2010,03,04,10,07,9.40
2010,03,04,10,08,9.40
2010,03,04,10,09,9.30
2010,03,04,10,10,9.30
2010,03,04,10,11,9.30
2010,03,04,10,12,9.20
2010,03,04,10,13,9.20
2010,03,04,10,14,9.20
2010,03,04,10,15,9.10
2010,03,04,10,16,9.10
2010,03,04,10,17,9.10
2010,03,04,10,18,9.10
2010,03,04,10,19,9.00
2010,03,04,10,20,9.00
2010,03,04,10,21,9.00
2010,03,04,10,22,9.00
2010,03,04,10,23,9.00
2010,03,04,10,24,9.00
2010,03,04,10,25,9.00
2010,03,04,10,26,9.10
2010,03,04,10,27,9.10
2010,03,04,10,28,9.10
2010,03,04,10,29,9.10
2010,03,04,10,30,9.10
2010,03,04,10,31,9.20
2010,03,04,10,32,9.20
2010,03,04,10,33,9.20
2010,03,04,10,34,9.20
2010,03,04,10,35,9.20
2010,03,04,10,36,9.20
2010,03,04,10,37,9.20
2010,03,04,10,38,9.20
2010,03,04,10,39,9.20
2010,03,04,10,40,9.20
2010,03,04,10,41,9.30
2010,03,04,10,42,9.30
2010,03,04,10,43,9.30
2010,03,04,10,44,9.30
2010,03,04,10,45,9.30
2010,03,04,10,46,9.30
2010,03,04,10,47,9.30
2010,03,04,10,48,9.30
2010,03,04,10,49,9.30
2010,03,04,10,50,9.30
2010,03,04,10,51,9.30
2010,03,04,10,52,9.30
2010,03,04,10,53,9.30
2010,03,04,10,54,9.30
2010,03,04,10,55,9.30
2010,03,04,10,56,9.30
2010,03,04,10,57,9.30
2010,03,04,10,58,9.30
2010,03,04,10,59,9.30
2010,03,04,11,00,9.30
2010,03,04,11,01,9.30
2010,03,04,11,02,9.30
2010,03,04,11,03,9.30
2010,03,04,11,04,9.30
2010,03,04,11,05,9.40
2010,03,04,11,06,9.40
2010,03,04,11,07,9.40
2010,03,04,11,08,9.50
2010,03,04,11,09,9.50
2010,03,04,11,10,9.60
2010,03,04,11,11,9.60
2010,03,04,11,12,9.60
2010,03,04,11,13,9.60
2010,03,04,11,14,9.70
2010,03,04,11,15,9.70
2010,03,04,11,16,9.80
2010,03,04,11,17,9.80
2010,03,04,11,18,9.90
2010,03,04,11,19,9.90
2010,03,04,11,20,9.90
2010,03,04,11,21,9.90
2010,03,04,11,22,9.90
2010,03,04,11,23,9.90
2010,03,04,11,24,9.90
2010,03,04,11,25,9.80
2010,03,04,11,26,9.80
2010,03,04,11,27,9.80
2010,03,04,11,28,9.80
2010,03,04,11,29,9.80
2010,03,04,11,30,9.90
2010,03,04,11,31,9.90
2010,03,04,11,32,9.90
2010,03,04,11,33,9.90
2010,03,04,11,34,9.90
2010,03,04,11,35,10.00
2010,03,04,11,36,10.00
2010,03,04,11,37,10.10
2010,03,04,11,38,10.10
2010,03,04,11,39,10.10
2010,03,04,11,40,10.10
2010,03,04,11,41,10.10
2010,03,04,11,42,10.10
2010,03,04,11,43,10.10
2010,03,04,11,44,10.10
2010,03,04,11,45,10.10
2010,03,04,11,46,10.10
2010,03,04,11,47,10.10
2010,03,04,11,48,10.10
2010,03,04,11,49,10.10
2010,03,04,11,50,10.10
2010,03,04,11,51,10.10
2010,03,04,11,52,10.10
2010,03,04,11,53,10.20
2010,03,04,11,54,10.20
2010,03,04,11,55,10.20
2010,03,04,11,56,10.20
2010,03,04,11,57,10.20
2010,03,04,11,58,10.20
2010,03,04,11,59,10.20
2010,03,04,12,00,10.20
2010,03,04,12,01,10.10
2010,03,04,12,02,10.10
2010,03,04,12,03,10.10
2010,03,04,12,04,10.10
2010,03,04,12,05,10.10
2010,03,04,12,06,10.10
2010,03,04,12,07,10.00
2010,03,04,12,08,10.00
2010,03,04,12,09,10.00
2010,03,04,12,10,10.00
2010,03,04,12,11,10.10
2010,03,04,12,12,10.10
2010,03,04,12,13,10.20
2010,03,04,12,14,10.20
2010,03,04,12,15,10.20
2010,03,04,12,16,10.20
2010,03,04,12,17,10.20
2010,03,04,12,18,10.20
2010,03,04,12,19,10.10
2010,03,04,12,20,10.10
2010,03,04,12,21,10.10
2010,03,04,12,22,10.10
2010,03,04,12,23,10.10
2010,03,04,12,24,10.10
2010,03,04,12,25,10.20
2010,03,04,12,26,10.20
2010,03,04,12,27,10.20
2010,03,04,12,28,10.20
2010,03,04,12,29,10.20
2010,03,04,12,30,10.20
2010,03,04,12,31,10.20
2010,03,04,12,32,10.10
2010,03,04,12,33,10.10
2010,03,04,12,34,10.20
2010,03,04,12,35,10.10
2010,03,04,12,36,10.10
2010,03,04,12,37,10.10
2010,03,04,12,38,10.10
2010,03,04,12,39,10.10
2010,03,04,12,40,10.10
2010,03,04,12,41,10.10
2010,03,04,12,42,10.10
2010,03,04,12,43,10.10
2010,03,04,12,44,10.00
2010,03,04,12,45,10.00
2010,03,04,12,46,10.00
2010,03,04,12,47,10.00
2010,03,04,12,48,10.00
2010,03,04,12,49,10.00
2010,03,04,12,50,10.00
2010,03,04,12,51,10.00
2010,03,04,12,52,10.00
2010,03,04,12,53,10.00
2010,03,04,12,54,10.00
2010,03,04,12,55,9.90
2010,03,04,12,56,9.90
2010,03,04,12,57,9.90
2010,03,04,12,58,9.90
2010,03,04,12,59,9.90
2010,03,04,13,00,9.90
2010,03,04,13,01,9.90
2010,03,04,13,02,9.90
2010,03,04,13,03,9.90
2010,03,04,13,04,9.90
2010,03,04,13,05,9.90
2010,03,04,13,06,10.00
2010,03,04,13,07,10.00
2010,03,04,13,08,10.00
2010,03,04,13,09,10.00
2010,03,04,13,10,10.00
2010,03,04,13,11,10.00
2010,03,04,13,12,10.00
2010,03,04,13,13,10.10
2010,03,04,13,14,10.10
2010,03,04,13,15,10.10
2010,03,04,13,16,10.20
2010,03,04,13,17,10.10
2010,03,04,13,18,10.10
2010,03,04,13,19,10.10
2010,03,04,13,20,10.10
2010,03,04,13,21,10.10
2010,03,04,13,22,10.00
2010,03,04,13,23,10.10
2010,03,04,13,24,10.10
2010,03,04,13,25,10.10
2010,03,04,13,26,10.10
2010,03,04,13,27,10.10
2010,03,04,13,28,10.10
2010,03,04,13,29,10.10
2010,03,04,13,30,10.10
2010,03,04,13,31,10.10
2010,03,04,13,32,10.10
2010,03,04,13,33,10.10
2010,03,04,13,34,10.10
2010,03,04,13,35,10.20
2010,03,04,13,36,10.20
2010,03,04,13,37,10.10
2010,03,04,13,38,10.10
2010,03,04,13,39,10.10
2010,03,04,13,40,10.00
2010,03,04,13,41,10.00
2010,03,04,13,42,10.00
2010,03,04,13,43,10.00
2010,03,04,13,44,10.00
2010,03,04,13,45,10.00
2010,03,04,13,46,10.00
2010,03,04,13,47,10.10
2010,03,04,13,48,10.10
2010,03,04,13,49,10.10
2010,03,04,13,50,10.10
2010,03,04,13,51,10.10
2010,03,04,13,52,10.10
2010,03,04,13,53,10.10
2010,03,04,13,54,10.10
2010,03,04,13,55,10.10
2010,03,04,13,56,10.10
2010,03,04,13,57,10.10
2010,03,04,13,58,10.10
2010,03,04,13,59,10.10
2010,03,04,14,00,10.10
2010,03,04,14,01,10.10
2010,03,04,14,02,10.10
2010,03,04,14,03,10.10
2010,03,04,14,04,10.20
2010,03,04,14,05,10.30
2010,03,04,14,06,10.30
2010,03,04,14,07,10.40
2010,03,04,14,08,10.40
2010,03,04,14,09,10.40
2010,03,04,14,10,10.40
2010,03,04,14,11,10.40
2010,03,04,14,12,10.40
2010,03,04,14,13,10.40
2010,03,04,14,14,10.40
2010,03,04,14,15,10.40
2010,03,04,14,16,10.30
2010,03,04,14,17,10.30
2010,03,04,14,18,10.30
2010,03,04,14,19,10.30
2010,03,04,14,20,10.30
2010,03,04,14,21,10.20
2010,03,04,14,22,10.20
2010,03,04,14,23,10.20
2010,03,04,14,24,10.20
2010,03,04,14,25,10.20
2010,03,04,14,26,10.10
2010,03,04,14,27,10.10
2010,03,04,14,28,10.10
2010,03,04,14,29,10.10
2010,03,04,14,30,10.00
2010,03,04,14,31,10.00
2010,03,04,14,32,10.00
2010,03,04,14,33,10.00
2010,03,04,14,34,10.00
2010,03,04,14,35,9.90
2010,03,04,14,36,9.90
2010,03,04,14,37,9.90
2010,03,04,14,38,9.90
2010,03,04,14,39,9.90
2010,03,04,14,40,9.80
2010,03,04,14,41,9.80
2010,03,04,14,42,9.80
2010,03,04,14,43,9.70
2010,03,04,14,44,9.70
2010,03,04,14,45,9.70
2010,03,04,14,46,9.70
2010,03,04,14,47,9.70
2010,03,04,14,48,9.60
2010,03,04,14,49,9.60
2010,03,04,14,50,9.60
2010,03,04,14,51,9.50
2010,03,04,14,52,9.50
2010,03,04,14,53,9.40
2010,03,04,14,54,9.40
2010,03,04,14,55,9.40
2010,03,04,14,56,9.40
2010,03,04,14,57,9.30
2010,03,04,14,58,9.30
2010,03,04,14,59,9.20
2010,03,04,15,00,9.20
2010,03,04,15,01,9.20
2010,03,04,15,02,9.10
2010,03,04,15,03,9.10
2010,03,04,15,04,9.10
2010,03,04,15,05,9.00
2010,03,04,15,06,9.00
2010,03,04,15,07,9.00
2010,03,04,15,08,8.90
2010,03,04,15,09,8.90
2010,03,04,15,10,8.90
2010,03,04,15,11,8.90
2010,03,04,15,12,8.80
2010,03,04,15,13,8.80
2010,03,04,15,14,8.80
2010,03,04,15,15,8.80
2010,03,04,15,16,8.70
2010,03,04,15,17,8.70
2010,03,04,15,18,8.70
2010,03,04,15,19,8.70
2010,03,04,15,20,8.70
2010,03,04,15,21,8.60
2010,03,04,15,22,8.60
2010,03,04,15,23,8.60
2010,03,04,15,24,8.50
2010,03,04,15,25,8.50
2010,03,04,15,26,8.50
2010,03,04,15,27,8.50
2010,03,04,15,28,8.50
2010,03,04,15,29,8.50
2010,03,04,15,30,8.40
2010,03,04,15,31,8.50
2010,03,04,15,32,8.50
2010,03,04,15,33,8.50
2010,03,04,15,34,8.40
2010,03,04,15,35,8.40
2010,03,04,15,36,8.40
2010,03,04,15,37,8.40
2010,03,04,15,38,8.40
2010,03,04,15,39,8.40
2010,03,04,15,40,8.40
2010,03,04,15,41,8.40
2010,03,04,15,42,8.40
2010,03,04,15,43,8.40
2010,03,04,15,44,8.40
2010,03,04,15,45,8.40
2010,03,04,15,46,8.40
2010,03,04,15,47,8.40
2010,03,04,15,48,8.40
2010,03,04,15,49,8.30
2010,03,04,15,50,8.30
2010,03,04,15,51,8.30
2010,03,04,15,52,8.30
2010,03,04,15,53,8.30
2010,03,04,15,54,8.40
2010,03,04,15,55,8.40
2010,03,04,15,56,8.40
2010,03,04,15,57,8.40
2010,03,04,15,58,8.40
2010,03,04,15,59,8.40
2010,03,04,16,00,8.40
2010,03,04,16,01,8.40
2010,03,04,16,02,8.50
2010,03,04,16,03,8.50
2010,03,04,16,04,8.50
2010,03,04,16,05,8.50
2010,03,04,16,06,8.60
2010,03,04,16,07,8.60
2010,03,04,16,08,8.60
2010,03,04,16,09,8.60
2010,03,04,16,10,8.60
2010,03,04,16,11,8.60
2010,03,04,16,12,8.60
2010,03,04,16,13,8.70
2010,03,04,16,14,8.70
2010,03,04,16,15,8.70
2010,03,04,16,16,8.70
2010,03,04,16,17,8.70
2010,03,04,16,18,8.70
2010,03,04,16,19,8.70
2010,03,04,16,20,8.70
2010,03,04,16,21,8.70
2010,03,04,16,22,8.70
2010,03,04,16,23,8.70
2010,03,04,16,24,8.70
2010,03,04,16,25,8.70
2010,03,04,16,26,8.70
2010,03,04,16,27,8.70
2010,03,04,16,28,8.70
2010,03,04,16,29,8.70
2010,03,04,16,30,8.70
2010,03,04,16,31,8.70
2010,03,04,16,32,8.80
2010,03,04,16,33,8.80
2010,03,04,16,34,8.80
2010,03,04,16,35,8.80
2010,03,04,16,36,8.80
2010,03,04,16,37,8.80
2010,03,04,16,38,8.80
2010,03,04,16,39,8.80
2010,03,04,16,40,8.80
2010,03,04,16,41,8.80
2010,03,04,16,42,8.80
2010,03,04,16,43,8.80
2010,03,04,16,44,8.80
2010,03,04,16,45,8.80
2010,03,04,16,46,8.80
2010,03,04,16,47,8.80
2010,03,04,16,48,8.80
2010,03,04,16,49,8.70
2010,03,04,16,50,8.80
2010,03,04,16,51,8.80
2010,03,04,16,52,8.80
2010,03,04,16,53,8.70
2010,03,04,16,54,8.70
2010,03,04,16,55,8.70
2010,03,04,16,56,8.70
2010,03,04,16,57,8.70
2010,03,04,16,58,8.70
2010,03,04,16,59,8.70
2010,03,04,17,00,8.70
2010,03,04,17,01,8.70
2010,03,04,17,02,8.70
2010,03,04,17,03,8.70
2010,03,04,17,04,8.70
2010,03,04,17,05,8.70
2010,03,04,17,06,8.70
2010,03,04,17,07,8.70
2010,03,04,17,08,8.60
2010,03,04,17,09,8.60
2010,03,04,17,10,8.60
2010,03,04,17,11,8.60
2010,03,04,17,12,8.60
2010,03,04,17,13,8.60
2010,03,04,17,14,8.60
2010,03,04,17,15,8.60
2010,03,04,17,16,8.60
2010,03,04,17,17,8.60
2010,03,04,17,18,8.60
2010,03,04,17,19,8.50
2010,03,04,17,20,8.50
2010,03,04,17,21,8.50
2010,03,04,17,22,8.50
2010,03,04,17,23,8.50
2010,03,04,17,24,8.50
2010,03,04,17,25,8.50
2010,03,04,17,26,8.50
2010,03,04,17,27,8.50
2010,03,04,17,28,8.50
2010,03,04,17,29,8.40
2010,03,04,17,30,8.40
2010,03,04,17,31,8.40
2010,03,04,17,32,8.40
2010,03,04,17,33,8.40
2010,03,04,17,34,8.40
2010,03,04,17,35,8.40
2010,03,04,17,36,8.40
2010,03,04,17,37,8.40
2010,03,04,17,38,8.40
2010,03,04,17,39,8.40
2010,03,04,17,40,8.40
2010,03,04,17,41,8.30
2010,03,04,17,42,8.30
2010,03,04,17,43,8.30
2010,03,04,17,44,8.30
2010,03,04,17,45,8.30
2010,03,04,17,46,8.30
2010,03,04,17,47,8.30
2010,03,04,17,48,8.30
2010,03,04,17,49,8.30
2010,03,04,17,50,8.30
2010,03,04,17,51,8.30
2010,03,04,17,52,8.30
2010,03,04,17,53,8.30
2010,03,04,17,54,8.30
2010,03,04,17,55,8.30
2010,03,04,17,56,8.30
2010,03,04,17,57,8.20
2010,03,04,17,58,8.20
2010,03,04,17,59,8.20